[[{"header":{"parameterUnit":"m.s-1","parameterCategory":1,"la1":30.2991,"la2":30.254,"lo1":-89.0895,"lo2":-89.0444,"dy":0.0017,"dx":0.0017,"nx":28,"ny":28,"refTime":"2025-07-13T03:00:00:Z","depth":0,"parameterNumber":2,"parameterNumberName":"U-component_of_WINDS"},"data":[0,0,0,0,0,0,0,0,0,0,0,0,0,0,0,0,0,0,0,0,0,0,0,0,0,0,0,0,0,0,0,0,0,0,0,0,0,0,0,0,0,0,0,0,0,0,0,0,0,0,0,0,0,0,0,0,0,0,-0.1567,-0.1565,0,-0.1416,-0.1414,-0.1412,-0.1351,-0.1351,-0.1352,-0.1352,-0.1192,-0.1188,-0.1183,0,0,0,0,0,0,0,0,0,0,0,0,0,-0.18,-0.1796,-0.1567,-0.1565,-0.1563,-0.1416,-0.1414,-0.1412,-0.1351,-0.1351,-0.1352,-0.1352,-0.1194,-0.1188,-0.1183,0,0,0,0,0,0,0,0,0,0,0,0,0,-0.1678,-0.1794,-0.1567,-0.1515,-0.1509,-0.1416,-0.1414,-0.1411,-0.1351,-0.1351,-0.1352,-0.1352,-0.1196,-0.1189,-0.1182,-0.1129,0,0,-0.1161,-0.1158,0,0,0,0,0,0,0,0,-0.1685,-0.167,-0.1525,-0.1519,-0.1512,-0.1403,-0.1437,-0.1316,-0.1351,-0.1411,-0.1352,-0.1353,-0.1262,-0.1249,-0.122,-0.1121,-0.1114,-0.1161,-0.1156,-0.1153,-0.1152,0,0,0,0,0,0,0,-0.1694,-0.1676,-0.1507,-0.1523,-0.1515,-0.1498,-0.1482,-0.1414,-0.1335,-0.1405,-0.1401,-0.1384,-0.1258,-0.1226,-0.1215,-0.1112,-0.1161,-0.1155,-0.115,-0.1148,-0.0963,-0.0963,0,0,0,0,0,0,-0.1711,-0.1684,-0.1512,-0.1502,-0.1602,-0.1494,-0.1475,-0.1437,-0.1335,-0.1321,-0.1384,-0.1382,-0.1238,-0.1224,-0.121,-0.1141,-0.1154,-0.1147,-0.1143,-0.0964,-0.0963,-0.0962,0,0,0,0,0,0,-0.1717,-0.1697,-0.1518,-0.1592,-0.1568,-0.1489,-0.1447,-0.1434,-0.1402,-0.1319,-0.1304,-0.1366,-0.1238,-0.1219,-0.115,-0.1135,-0.1144,-0.1138,-0.0965,-0.0964,-0.0963,-0.1003,0,0,0,0,0,0,-0.1724,-0.1699,-0.1679,-0.1592,-0.1564,-0.1462,-0.1446,-0.143,-0.1391,-0.1387,-0.1299,-0.1284,-0.1237,-0.1161,-0.1143,-0.1125,-0.1132,-0.0966,-0.0965,-0.0963,-0.1003,-0.1004,-0.1004,0,0,0,0,0,-0.1732,-0.1695,-0.1678,-0.1657,-0.1537,-0.1461,-0.1445,-0.1392,-0.139,-0.1368,-0.1315,-0.1287,-0.1139,-0.1154,-0.1134,-0.1114,-0.0967,-0.0965,-0.0963,-0.1002,-0.1003,-0.1004,0,0,0,0,0,0,-0.1779,-0.1682,-0.1662,-0.1596,-0.1538,-0.1451,-0.1422,-0.1395,-0.1335,-0.1333,-0.1269,-0.125,-0.1186,-0.1142,-0.1161,-0.1057,-0.1051,-0.1045,-0.1088,-0.1088,-0.1088,-0.11,-0.1127,0,0,0,0,0,-0.1783,-0.173,-0.1648,-0.1597,-0.1569,-0.1501,-0.1466,-0.1431,-0.1367,-0.1341,-0.1283,-0.1221,-0.116,-0.1122,-0.1061,-0.0997,-0.0976,-0.0973,-0.0974,-0.0975,-0.097,-0.0933,-0.0931,-0.0957,-0.0957,-0.0957,0,0,-0.1788,-0.1728,-0.1698,-0.1605,-0.1555,-0.1502,-0.148,-0.1424,-0.1383,-0.1332,-0.1263,-0.1219,-0.1145,-0.1079,-0.1046,-0.104,-0.0959,-0.0972,-0.0974,-0.0968,-0.0931,-0.0929,-0.0927,-0.0956,-0.0956,-0.0956,0,0,-0.1769,-0.1719,-0.1672,-0.1624,-0.155,-0.1505,-0.1494,-0.1412,-0.1381,-0.1312,-0.1272,-0.1223,-0.112,-0.1069,-0.103,-0.0996,-0.0968,-0.0978,-0.0981,-0.0946,-0.0944,-0.0942,-0.0929,-0.0926,-0.0974,-0.0974,-0.0974,0,-0.1785,-0.1704,-0.1651,-0.1597,-0.1557,-0.1511,-0.1462,-0.1417,-0.1327,-0.13,-0.1296,-0.1167,-0.1114,-0.1035,-0.1027,-0.0997,-0.0982,-0.0987,-0.0949,-0.0946,-0.0943,-0.0931,-0.0926,-0.0976,-0.0975,-0.0975,-0.0975,0,-0.1726,-0.167,-0.1641,-0.1557,-0.1514,-0.1463,-0.1402,-0.1364,-0.1334,-0.129,-0.122,-0.1155,-0.1082,-0.1061,-0.1029,-0.0977,-0.0976,-0.0961,-0.0953,-0.0943,-0.0931,-0.0925,-0.0978,-0.0977,-0.0977,-0.0976,0,0,-0.1732,-0.1621,-0.1611,-0.1573,-0.149,-0.1445,-0.1392,-0.1322,-0.1292,-0.1231,-0.1185,-0.1101,-0.1087,-0.1042,-0.1005,-0.0974,-0.0952,-0.0963,-0.096,-0.0963,-0.0891,-0.0903,-0.0898,-0.0933,-0.0932,-0.0931,-0.0897,0,-0.1702,-0.1607,-0.1559,-0.1485,-0.1433,-0.1389,-0.1343,-0.1286,-0.1244,-0.1193,-0.1145,-0.1087,-0.1073,-0.1046,-0.1014,-0.0962,-0.0936,-0.0963,-0.0889,-0.0887,-0.0908,-0.0892,-0.0903,-0.0875,-0.0892,-0.0891,-0.0891,0,-0.1655,-0.1597,-0.1518,-0.1442,-0.1418,-0.1378,-0.1311,-0.1263,-0.1198,-0.1169,-0.1122,-0.1085,-0.1028,-0.1025,-0.0945,-0.0964,-0.0931,-0.0901,-0.0898,-0.0889,-0.0888,-0.0881,-0.0864,-0.086,-0.0882,-0.0883,-0.0883,0,-0.1667,-0.157,-0.151,-0.1479,-0.1389,-0.1361,-0.1322,-0.1258,-0.1219,-0.116,-0.1135,-0.1069,-0.1033,-0.0982,-0.0929,-0.0933,-0.0854,-0.0847,-0.0828,-0.0829,-0.0812,-0.0814,-0.0789,-0.0792,-0.0792,-0.0792,-0.0793,0,-0.1639,-0.1592,-0.1515,-0.1478,-0.1425,-0.137,-0.1318,-0.1275,-0.1219,-0.1172,-0.113,-0.1087,-0.102,-0.0969,-0.0927,-0.0867,-0.085,-0.0825,-0.0814,-0.0829,-0.0832,-0.0805,-0.0806,-0.0791,-0.0791,-0.0792,-0.0792,0,-0.1643,-0.159,-0.1522,-0.1443,-0.1422,-0.1386,-0.1317,-0.128,-0.1236,-0.1178,-0.1161,-0.1092,-0.103,-0.0973,-0.0889,-0.0861,-0.08,-0.0786,-0.0823,-0.0817,-0.0801,-0.0803,-0.0757,-0.0749,-0.0758,-0.0758,-0.0758,0,-0.1628,-0.1592,-0.151,-0.1477,-0.1439,-0.1386,-0.1347,-0.1292,-0.1253,-0.1177,-0.1149,-0.1084,-0.1029,-0.0931,-0.0872,-0.0808,-0.0793,-0.0781,-0.0783,-0.0799,-0.0792,-0.0795,-0.0791,-0.0782,-0.0782,-0.0782,-0.0782,0,-0.1608,-0.1584,-0.1531,-0.1468,-0.1424,-0.1371,-0.1318,-0.1293,-0.1227,-0.1186,-0.1122,-0.108,-0.0996,-0.0932,-0.0862,-0.082,-0.079,-0.0783,-0.0775,-0.0789,-0.0811,-0.0799,-0.0824,-0.0784,-0.0784,-0.0783,-0.0783,-0.0783,-0.1602,-0.1568,-0.1505,-0.1447,-0.1402,-0.1353,-0.1315,-0.1267,-0.1214,-0.1143,-0.1113,-0.1049,-0.0985,-0.0889,-0.0848,-0.0796,-0.079,-0.0778,-0.0775,-0.0773,-0.0776,-0.0821,-0.0783,-0.0783,-0.0783,-0.0783,-0.0783,0,-0.158,-0.1538,-0.1485,-0.1413,-0.1367,-0.1346,-0.1285,-0.1248,-0.1193,-0.1137,-0.1085,-0.1013,-0.0951,-0.0889,-0.0824,-0.0794,-0.0779,-0.0779,-0.078,-0.0771,-0.0785,-0.0799,-0.0793,-0.0793,-0.0793,-0.0793,-0.0793,-0.0793,-0.1563,-0.1504,-0.1473,-0.1391,-0.1349,-0.1288,-0.1255,-0.121,-0.1166,-0.1088,-0.1037,-0.0998,-0.0939,-0.0869,-0.0812,-0.0795,-0.0773,-0.0776,-0.0756,-0.077,-0.077,-0.077,-0.0782,-0.0772,-0.0772,-0.0746,-0.0745,-0.0745]},{"header":{"parameterUnit":"m.s-1","parameterCategory":1,"la1":30.2991,"la2":30.254,"lo1":-89.0895,"lo2":-89.0444,"dy":0.0017,"dx":0.0017,"nx":28,"ny":28,"refTime":"2025-07-13T03:00:00:Z","depth":0,"parameterNumber":3,"parameterNumberName":"V-component_of_WINDS"},"data":[0,0,0,0,0,0,0,0,0,0,0,0,0,0,0,0,0,0,0,0,0,0,0,0,0,0,0,0,0,0,0,0,0,0,0,0,0,0,0,0,0,0,0,0,0,0,0,0,0,0,0,0,0,0,0,0,0,0,2.7854,2.7853,0,2.7822,2.7822,2.7822,2.7837,2.7838,2.7839,2.784,2.7802,2.78,2.7798,0,0,0,0,0,0,0,0,0,0,0,0,0,2.7921,2.792,2.7854,2.7853,2.7853,2.7822,2.7822,2.7821,2.7837,2.7838,2.7839,2.784,2.7803,2.78,2.7798,0,0,0,0,0,0,0,0,0,0,0,0,0,2.7891,2.7919,2.7854,2.7857,2.7857,2.7822,2.7822,2.7821,2.7837,2.7838,2.7839,2.784,2.7803,2.7801,2.7798,2.7757,0,0,2.779,2.7789,0,0,0,0,0,0,0,0,2.7893,2.7888,2.7857,2.7857,2.7857,2.7835,2.7832,2.7799,2.7836,2.7844,2.784,2.7841,2.7812,2.7808,2.7799,2.7755,2.7753,2.779,2.7788,2.7787,2.7786,0,0,0,0,0,0,0,2.7895,2.789,2.7841,2.7856,2.7856,2.7858,2.7855,2.7826,2.7821,2.7844,2.7845,2.7841,2.7812,2.7802,2.7799,2.7753,2.779,2.7787,2.7786,2.7785,2.767,2.7668,0,0,0,0,0,0,2.7897,2.7891,2.7842,2.784,2.7878,2.7856,2.7853,2.7841,2.7822,2.782,2.784,2.7842,2.7806,2.7802,2.7797,2.7746,2.7787,2.7784,2.7783,2.7671,2.7669,2.7668,0,0,0,0,0,0,2.7899,2.7893,2.7843,2.7866,2.786,2.7854,2.784,2.7839,2.783,2.7819,2.7818,2.7831,2.7807,2.7801,2.7766,2.7745,2.7783,2.7781,2.7673,2.7671,2.7669,2.7643,0,0,0,0,0,0,2.7901,2.7893,2.7879,2.7866,2.7859,2.7815,2.7839,2.7838,2.7826,2.7828,2.781,2.7809,2.7807,2.777,2.7764,2.7742,2.7779,2.7675,2.7672,2.7669,2.7646,2.7641,2.7636,0,0,0,0,0,2.7903,2.7872,2.7878,2.7872,2.7841,2.7813,2.7809,2.781,2.7824,2.7808,2.7801,2.7809,2.7749,2.7767,2.7759,2.7736,2.7676,2.7673,2.7669,2.7648,2.7642,2.7636,0,0,0,0,0,0,2.7882,2.7871,2.7877,2.7842,2.7828,2.7816,2.7797,2.7803,2.7784,2.7787,2.7787,2.7783,2.7746,2.7738,2.7758,2.7694,2.7714,2.7709,2.7701,2.7694,2.7689,2.7691,2.7776,0,0,0,0,0,2.7873,2.7853,2.7844,2.7814,2.7807,2.7803,2.7791,2.7793,2.7778,2.7772,2.7763,2.7747,2.7724,2.7709,2.7688,2.7646,2.764,2.7626,2.7621,2.7617,2.7612,2.7587,2.7579,2.7657,2.7657,2.7657,0,0,2.7854,2.7846,2.7833,2.7809,2.7799,2.7777,2.7798,2.7774,2.7756,2.7768,2.7735,2.7727,2.7709,2.767,2.7652,2.7662,2.7589,2.7613,2.7609,2.7607,2.7582,2.7575,2.7569,2.7655,2.7655,2.7656,0,0,2.7809,2.7802,2.7775,2.7764,2.775,2.7747,2.774,2.7727,2.7723,2.769,2.7697,2.7676,2.7637,2.7624,2.7612,2.756,2.7566,2.7553,2.7526,2.7501,2.7495,2.749,2.7469,2.7462,2.7549,2.7549,2.7548,0,2.7787,2.7756,2.7759,2.7734,2.7722,2.7734,2.7705,2.7694,2.7672,2.7663,2.7675,2.7625,2.7614,2.7571,2.7558,2.7549,2.754,2.7554,2.7496,2.7491,2.7485,2.7466,2.7458,2.7547,2.7547,2.7547,2.7547,0,2.7728,2.7706,2.7686,2.7666,2.7652,2.7625,2.7623,2.7607,2.761,2.7606,2.757,2.7558,2.7533,2.7523,2.7525,2.7479,2.7486,2.7497,2.7517,2.7476,2.7458,2.745,2.7545,2.7545,2.7546,2.7546,0,0,2.7668,2.7651,2.7643,2.7633,2.7617,2.7599,2.7572,2.7549,2.7535,2.752,2.7495,2.7462,2.7472,2.7458,2.7458,2.7437,2.7394,2.745,2.745,2.7439,2.734,2.7331,2.7322,2.7399,2.7397,2.7396,2.7341,0,2.762,2.7574,2.7576,2.7532,2.751,2.752,2.7496,2.7482,2.7477,2.7456,2.745,2.7425,2.7442,2.7433,2.7413,2.7404,2.7374,2.7408,2.7373,2.7372,2.7375,2.7313,2.7303,2.7251,2.7334,2.7333,2.7332,0,2.7557,2.7541,2.7495,2.7481,2.7472,2.7451,2.7429,2.741,2.7394,2.7391,2.7376,2.738,2.7349,2.7371,2.7328,2.7351,2.7337,2.733,2.7328,2.7323,2.7348,2.7304,2.7235,2.7226,2.7321,2.7322,2.7322,0,2.7515,2.7481,2.7449,2.7441,2.7425,2.7409,2.7401,2.7386,2.7372,2.7353,2.7343,2.732,2.7307,2.7288,2.7284,2.7301,2.724,2.7262,2.7234,2.7234,2.7219,2.722,2.7145,2.7214,2.7214,2.7214,2.7214,0,2.746,2.7431,2.743,2.741,2.7377,2.7379,2.7345,2.7339,2.7325,2.7302,2.731,2.7287,2.7285,2.7261,2.7258,2.7221,2.7216,2.7211,2.721,2.7209,2.721,2.7198,2.7201,2.7212,2.7212,2.7213,2.7213,0,2.7407,2.7405,2.737,2.7358,2.7354,2.733,2.7318,2.7298,2.7294,2.7264,2.7257,2.725,2.7222,2.7217,2.7184,2.7182,2.7137,2.7141,2.7143,2.7143,2.7115,2.7117,2.7028,2.7016,2.7094,2.7094,2.7093,0,2.7371,2.7349,2.7334,2.732,2.7312,2.7289,2.7275,2.7276,2.726,2.7239,2.7221,2.7194,2.7173,2.7128,2.7118,2.7092,2.7094,2.7065,2.709,2.7089,2.7091,2.7092,2.7088,2.7059,2.7059,2.7058,2.7057,0,2.7306,2.7307,2.7287,2.7266,2.7249,2.7233,2.7217,2.7205,2.7203,2.7184,2.7157,2.7141,2.7108,2.708,2.7055,2.7044,2.7049,2.705,2.7042,2.704,2.7041,2.7037,2.7128,2.7051,2.7052,2.7052,2.7053,2.7053,2.7259,2.7239,2.7226,2.7203,2.7192,2.7176,2.7156,2.715,2.7128,2.7102,2.7103,2.7072,2.7055,2.7021,2.7009,2.6983,2.6992,2.6981,2.6978,2.6974,2.6971,2.7047,2.6979,2.6979,2.6979,2.6979,2.6979,0,2.7193,2.7185,2.7164,2.7143,2.7124,2.7133,2.7116,2.7099,2.7072,2.7057,2.7036,2.7003,2.6976,2.6964,2.6937,2.6919,2.692,2.6912,2.6912,2.6909,2.6965,2.6974,2.6911,2.6911,2.6911,2.6911,2.6911,2.6911,2.7157,2.7123,2.7122,2.7082,2.7073,2.7045,2.7034,2.7019,2.7006,2.697,2.6948,2.6942,2.6926,2.6898,2.6873,2.687,2.6859,2.6848,2.6846,2.6898,2.6905,2.6912,2.692,2.6846,2.6846,2.6791,2.6791,2.679]}]]